Regional Weather Roundup
Issued by NWS New Orleans/Baton Rouge, LA

Home | Current Version | Previous Version | Graphics & Text | Print | Product List | Glossary Off
Versions: 1 2 3 4 5 6 7 8 9 10 11 12 13 14 15 16 17 18 19 20 21 22 23 24 25 26 27 28 29 30 31 32 33 34 35 36 37 38 39 40 41 42 43 44 45 46 47 48 49 50

690
ASUS44 KLIX 190310
RWRLIX
NEW ORLEANS REGIONAL WEATHER ROUNDUP
NATIONAL WEATHER SERVICE NEW ORLEANS LA
1000 PM CDT THU SEP 18 2014

NOTE: "FAIR" INDICATES FEW OR NO CLOUDS BELOW 12,000 FEET WITH NO
      SIGNIFICANT WEATHER AND/OR OBSTRUCTIONS TO VISIBILITY.
      SKY/WX - SKY CONDITION AND SIGNIFICANT WEATHER.
      TMP - AIR TEMPERATURE.     DP    - DEWPOINT TEMPERATURE.
      RH  - RELATIVE HUMIDITY.   PRES  - PRESSURE.
      HI  - HEAT INDEX.          WCI   - WIND CHILL INDEX.

*  THESE STATIONS ARE NOT NWS OR FAA STATIONS AND ARE NOT UNDER
   NWS QUALITY CONTROL.

LAZ038-040-048-061>063-065>067-069-190400-
SOUTHEAST LOUISIANA

CITY           SKY/WX    TMP DP  RH WIND       PRES   REMARKS
N.O. AUDUBON     N/A     82  70  66 MISG        N/A
N.O. INTL ARPT CLOUDY    79  69  71 S7        29.93R
N.O. LAKEFRONT CLOUDY    80  71  74 SE6       29.93R
N.O. DOWNTOWN*   N/A     81  66  61 SE5       29.93S
SLIDELL        CLOUDY    75  67  76 E3        29.94R
BATON ROUGE    LGT RAIN  72  70  93 NE5       29.94R
BOOTHVILLE     CLOUDY    79  76  90 S5        29.93S
BELLE CHASSE   CLOUDY    76  71  85 CALM      29.92R
BOGALUSA*        N/A     76  66  71 SW8       29.98R
GALLIANO*      NOT AVBL
NEW ROADS*     LGT RAIN  71  70  96 CALM      29.93R
GONZALES*      CLOUDY    73  73 100 CALM      29.93R
HAMMOND*       DRIZZLE   77  72  83 NE6       29.97R
HOUMA*         RAIN      74  69  85 N5        29.92S
PORT FOURCHON* CLOUDY    81  75  83 CALM      29.95S

$$

MSZ070-080>082-190400-
SOUTHERN MISSISSIPPI

CITY           SKY/WX    TMP DP  RH WIND       PRES   REMARKS
MCCOMB         CLOUDY    76  67  73 SW7       29.96R
GULFPORT       CLOUDY    74  72  93 CALM      29.91F
BILOXI         CLOUDY    74  72  94 S2        29.91F
PASCAGOULA     CLOUDY    72  69  90 NE5       29.93R

$$

COASTAL OBSERVATIONS
LAKE AND NEARSHORE STATIONS

STATION/POSITION TIME  TEMP    WIND        PRES    WAVE
                       AIR SEA DIR/SP/G            HT/PER
                 (UTC) (F)     (DEG/KT/KT) (MB)    (FT/S)
PASCAGOULA       0300   78      70/  2/  3 1012.7
WAVELAND YACHT   0300   76     250/  3/  3 1012.5
GRAND ISLE       0300   80 87  260/  4/  5 1013.9
SOUTHWEST PASS   0300   82 91  280/  3/  4 1013.8
NEW CANAL        0300   81 83   CALM  /  3 1013.6
SHELL BEACH      0300   80 82   CALM  /  2 1013.4

OFFSHORE STATIONS

STATION/POSITION TIME  TEMP    WIND        PRES    WAVE
                       AIR SEA DIR/SP/G            HT/PER
                 (UTC) (F)     (DEG/KT/KT) (MB)    (FT/S)
64 S DAUPHIN ISL 0214   83 85  100/  2/  4 1014.0    1

$$




USA.gov is the U.S. government's official web portal to all federal, state and local government web resources and services.